GFSSW_250_rhum_090.txt.gz
RH
62 53 45 25 25 25 23 18 12 11 10 6 4 3 3 3 2 2 2 3 3 3 4 4 4 5 6 7 8 10 8 7 11 12 16 14 12 12 16 45 57 48 40 41 44
63 56 52 25 24 28 32 22 10 14 11 7 4 3 2 3 2 2 2 3 3 3 3 4 4 4 5 6 6 9 9 11 14 18 13 13 13 12 12 16 44 53 40 38 43
67 60 62 32 36 27 30 26 12 14 12 8 5 4 3 2 2 2 2 2 3 3 3 4 4 4 4 5 6 8 12 13 11 16 14 13 13 13 13 12 15 33 44 33 38
63 60 61 43 37 26 31 29 15 14 11 8 6 4 4 2 2 2 2 2 2 3 3 3 4 4 4 4 6 8 13 11 12 13 13 13 14 13 13 14 13 13 19 32 36
67 58 64 54 41 27 33 37 21 13 10 7 6 4 4 2 2 2 2 2 2 2 3 3 3 4 4 5 6 8 10 11 12 12 12 13 12 13 13 14 15 15 14 19 40
65 65 66 55 51 30 40 42 28 14 12 7 8 5 3 2 2 2 2 2 2 2 2 3 3 4 4 5 5 6 9 12 12 13 12 12 12 12 14 13 14 15 15 14 26
68 68 66 54 52 30 49 43 31 14 11 7 7 6 4 2 2 2 2 2 2 2 2 3 3 3 5 5 5 6 8 11 13 13 12 12 10 12 12 12 14 16 16 16 20
67 70 69 54 59 33 47 48 30 16 10 7 6 7 4 3 2 2 2 2 1 2 2 3 3 4 4 5 6 7 8 10 12 12 11 12 12 11 12 13 14 15 17 17 15
66 69 68 61 54 33 50 46 37 19 10 6 5 6 5 3 2 2 2 1 1 1 2 3 3 4 4 5 5 5 8 10 13 12 12 12 12 12 11 12 14 15 17 17 17
64 70 64 58 60 39 53 53 35 19 10 6 4 6 5 3 2 2 2 1 1 1 1 2 4 4 4 5 4 5 7 10 14 15 13 13 14 16 12 13 14 15 15 18 18
64 74 63 59 56 42 52 53 35 23 9 5 4 6 5 4 3 2 2 2 1 1 1 2 3 5 6 5 5 6 8 12 22 20 19 18 18 16 14 14 14 14 14 17 20
66 75 63 65 56 52 60 53 33 25 10 5 4 4 5 4 4 2 2 2 1 2 1 2 3 6 5 5 6 7 9 11 15 19 20 17 18 17 15 15 15 14 14 16 20
73 79 65 68 60 57 52 49 33 31 14 5 5 4 5 5 3 2 2 2 2 1 1 2 3 3 6 6 6 6 9 12 14 19 21 21 18 17 16 15 15 15 14 15 19
74 82 71 67 65 54 50 48 36 32 17 6 6 4 4 4 4 4 2 2 2 1 1 2 2 4 6 8 6 8 8 12 14 17 19 21 22 17 17 17 16 16 16 17 18
75 81 73 74 60 56 59 48 32 33 19 7 6 5 3 4 4 4 2 3 2 2 2 2 2 4 5 7 8 9 10 12 14 14 14 19 20 18 18 18 18 17 17 17 18
84 86 71 71 58 62 56 41 31 42 24 7 8 8 5 5 4 4 3 3 2 2 2 2 3 4 4 8 12 10 10 12 12 13 14 15 18 18 21 22 19 16 16 16 17
93 85 74 68 66 61 54 38 30 43 37 10 10 7 5 5 4 4 3 3 3 2 3 3 3 4 5 8 15 12 11 12 12 13 15 14 16 22 24 22 20 17 16 16 18
96 87 72 70 72 66 53 40 29 41 44 13 10 7 5 6 4 4 4 3 3 2 3 4 4 5 5 9 16 13 11 11 12 15 17 16 18 22 20 21 16 15 17 17 17
100 90 73 69 80 65 54 36 31 40 48 23 8 7 5 5 4 4 4 3 4 2 3 4 5 4 5 7 14 16 13 12 14 15 20 20 25 23 17 18 17 15 16 17 16
100 84 72 71 84 68 54 35 30 46 53 30 9 7 5 6 4 4 4 4 5 3 3 4 5 6 6 7 12 16 17 15 16 16 18 19 22 23 18 19 18 19 17 17 17
100 83 81 75 85 68 52 30 32 51 53 30 11 8 5 5 4 4 4 4 6 4 3 4 6 7 6 6 14 20 20 17 17 18 21 22 21 20 17 18 18 18 19 18 16
99 82 76 82 90 62 45 30 34 50 52 36 11 9 8 5 4 4 4 5 7 5 4 4 6 7 8 12 24 30 30 25 20 19 23 24 24 24 22 17 21 23 23 22 19
98 90 79 83 82 59 42 29 35 49 56 45 13 9 8 4 4 3 4 5 6 6 4 5 8 9 10 17 27 28 32 33 30 27 25 26 28 26 23 16 17 23 24 23 22
85 88 85 89 74 57 43 32 35 64 57 55 29 9 8 6 4 4 5 5 6 8 5 5 9 14 15 16 28 29 30 30 29 30 33 34 26 23 23 17 19 24 26 26 25
95 89 78 89 73 55 42 34 40 63 55 63 50 12 10 8 5 4 5 6 6 9 9 6 9 13 22 27 32 34 34 36 36 35 38 36 33 30 32 25 20 23 26 26 28
97 86 82 91 73 48 41 37 44 59 57 73 56 21 14 10 7 5 5 6 7 7 12 9 7 16 19 26 29 32 34 33 38 42 44 40 39 26 25 26 24 26 24 28 30
99 76 83 80 70 43 44 45 49 56 49 57 65 40 19 16 14 6 6 6 6 7 13 14 10 9 18 23 24 31 35 35 33 35 42 46 37 33 33 30 34 30 29 29 27

GFSSW_250_rhum_096.txt.gz
RH
98 97 83 87 70 74 64 45 44 37 27 31 19 12 8 6 6 5 4 3 3 2 2 2 3 4 4 6 6 8 12 12 13 15 16 18 11 13 23 55 45 48 33 99 95
100 100 99 95 75 76 74 52 46 35 31 31 20 11 8 6 7 6 5 3 3 2 2 2 3 3 4 5 7 8 9 11 17 17 23 21 14 13 16 28 45 39 49 82 87
100 100 100 97 81 79 75 60 49 39 28 35 23 13 8 6 7 5 5 3 3 3 2 2 3 3 4 4 5 7 10 18 16 18 19 18 15 17 17 19 36 39 73 80 92
100 100 100 100 87 83 78 64 53 44 27 34 23 12 8 6 6 6 5 3 3 3 2 2 2 3 4 5 5 7 16 15 20 16 17 14 20 16 24 19 25 19 32 83 52
100 100 100 100 93 87 82 66 54 45 30 35 25 13 7 5 6 5 4 3 3 2 2 2 2 2 3 4 5 7 15 15 18 13 15 17 19 15 31 20 20 15 14 30 77
100 100 100 100 100 92 87 71 58 42 30 27 20 12 8 5 5 4 4 2 2 2 2 2 2 2 3 3 5 9 12 15 15 14 18 18 20 14 24 20 25 20 17 24 48
100 100 99 100 100 96 85 72 56 40 33 31 21 12 6 5 5 4 3 2 2 2 2 2 2 2 2 4 5 8 10 15 13 17 16 18 21 18 20 20 16 17 22 16 24
100 100 100 100 100 100 82 68 53 41 34 34 20 13 7 4 5 5 2 2 2 2 2 2 2 2 2 4 4 7 9 13 18 17 17 16 19 22 19 18 13 15 28 21 18
100 100 100 100 100 99 84 69 52 39 40 29 23 13 8 4 4 4 2 2 2 2 2 2 2 2 2 2 4 5 7 11 18 19 19 15 16 20 15 16 14 14 20 22 24
100 100 100 100 100 94 81 67 53 41 40 37 22 12 8 5 4 3 2 2 2 2 2 2 2 2 2 2 3 5 8 12 14 17 17 23 15 23 22 19 19 17 18 19 24
100 100 100 100 100 90 77 62 48 50 43 40 20 11 7 5 3 3 2 2 2 2 2 2 2 2 2 3 3 5 8 12 17 16 15 22 29 20 22 22 21 19 17 15 23
100 100 100 100 100 86 72 56 43 52 42 37 23 10 6 5 3 2 2 2 2 2 2 2 1 1 2 3 4 5 6 10 13 14 14 18 19 17 19 24 21 22 21 19 21
100 100 100 100 100 78 69 54 46 50 49 44 22 11 7 4 4 2 2 2 2 2 2 2 1 1 2 2 4 4 7 9 12 13 14 20 20 19 15 22 24 24 20 17 16
100 100 100 100 100 73 59 52 48 49 43 36 23 14 6 5 5 2 2 2 2 2 2 2 2 2 2 2 4 6 7 9 11 14 18 20 18 19 17 23 24 24 23 21 19
100 100 100 100 94 72 54 48 53 56 47 32 20 12 5 5 4 3 2 2 2 2 2 1 1 2 2 2 5 7 8 8 12 15 19 14 18 24 19 21 32 31 28 26 25
100 100 100 100 90 66 58 50 58 54 44 28 20 11 6 5 4 3 2 2 2 2 2 2 2 2 2 3 4 7 8 10 12 15 14 12 17 16 19 26 28 26 28 26 24
100 100 100 100 85 61 55 58 60 51 37 25 20 11 8 5 4 2 2 2 2 2 2 2 2 2 2 3 3 8 8 9 11 10 12 13 14 15 19 24 26 29 31 27 23
100 100 100 100 74 61 55 68 59 46 34 24 25 13 12 6 5 3 2 2 3 3 2 2 2 2 2 3 4 5 10 9 10 11 10 12 14 15 17 26 27 34 31 26 28
100 100 100 82 72 65 61 65 60 46 32 28 28 19 11 6 6 4 3 3 3 3 2 2 3 3 3 3 4 6 13 10 11 10 11 12 14 16 19 30 25 28 31 33 30
100 100 100 76 70 75 70 64 65 53 28 24 29 24 14 8 7 6 3 3 3 4 3 3 3 3 3 4 4 9 16 12 10 10 11 13 13 16 17 21 26 29 36 39 35
100 100 94 75 82 78 72 65 60 51 27 28 32 36 25 11 9 7 4 4 4 4 4 3 4 4 5 6 8 13 16 16 12 12 13 14 13 16 20 23 26 34 45 43 38
100 98 90 76 92 81 74 67 57 42 26 30 35 49 35 14 9 10 6 4 4 5 5 4 4 5 5 7 14 19 21 19 15 12 14 12 13 17 18 21 23 28 38 39 38
95 94 82 89 98 84 74 63 57 38 27 32 43 55 37 17 12 9 7 5 5 5 6 5 5 6 8 10 16 17 24 25 22 16 13 12 13 16 17 21 24 28 31 36 42
94 90 94 90 99 89 75 66 61 35 28 35 41 48 47 25 14 12 11 11 5 6 7 8 6 6 8 10 13 15 20 26 26 21 16 14 14 17 18 20 26 26 30 36 39
100 80 98 98 99 91 76 65 61 38 31 37 41 46 49 43 18 15 12 12 13 7 8 10 9 7 7 10 14 18 22 27 26 23 19 16 17 21 25 29 28 30 36 38 36
98 93 99 95 98 89 84 71 69 40 32 35 38 44 43 52 31 14 15 17 18 16 8 10 12 11 9 13 19 20 27 34 31 27 19 16 17 22 27 33 36 40 42 46 43
90 98 100 98 100 95 87 73 72 42 36 34 39 38 44 50 51 25 17 15 14 19 17 9 14 14 13 10 14 26 33 34 36 33 28 22 19 28 28 34 37 37 37 42 42

GFSSW_250_rhum_099.txt.gz
RH
61 61 79 100 100 88 90 86 74 61 50 39 31 28 18 11 6 6 4 3 4 4 3 3 3 3 3 3 3 5 6 9 16 18 25 27 18 17 15 15 19 66 98 100 100
70 75 85 92 100 92 85 100 81 66 56 38 37 24 17 9 7 6 4 4 3 4 3 2 3 2 3 4 4 6 6 7 14 20 24 26 20 17 14 13 20 21 44 82 92
90 85 90 89 97 90 92 100 85 72 52 41 43 30 18 9 6 5 5 3 3 3 2 2 2 2 2 3 3 5 7 11 10 15 20 25 22 19 16 17 24 25 48 43 64
99 94 92 95 98 92 99 100 88 75 52 46 42 33 15 9 7 5 4 3 2 3 2 2 2 2 2 2 4 6 8 12 12 15 20 26 21 18 16 21 31 24 27 44 98
100 100 89 89 100 96 100 100 84 73 52 50 46 28 16 7 6 5 5 3 2 2 2 2 2 2 2 2 4 8 11 12 13 14 23 24 20 20 17 17 34 22 31 23 40
100 100 100 96 100 100 100 100 91 75 51 52 47 32 16 7 7 5 4 3 2 2 2 2 2 2 2 2 4 7 8 12 9 10 22 19 20 21 17 17 46 46 30 39 34
100 92 93 96 100 100 100 100 92 75 60 55 46 32 12 8 6 5 4 3 2 2 2 2 2 2 2 2 3 6 7 8 10 12 16 17 21 24 22 22 30 52 25 30 60
100 100 93 95 100 100 100 100 93 69 64 55 40 34 13 8 5 5 3 3 2 2 2 2 2 2 2 2 3 4 7 6 11 14 15 15 15 25 29 16 24 48 44 28 39
100 100 90 97 100 100 100 100 90 76 63 49 40 39 12 6 5 5 3 3 2 2 2 2 2 2 2 2 3 4 5 8 12 15 15 18 21 19 26 26 24 30 44 26 24
100 94 99 100 100 100 100 100 86 76 64 44 43 34 8 6 6 4 2 2 1 2 2 1 2 2 2 2 3 4 4 8 12 15 17 23 27 24 24 30 28 17 29 36 36
100 100 100 97 100 100 100 100 96 85 57 42 49 23 6 6 5 4 2 2 1 2 2 2 2 1 2 2 3 3 4 8 11 17 21 33 37 30 40 32 31 14 25 41 38
100 100 100 100 100 100 100 100 91 75 52 44 48 13 6 6 5 3 2 2 2 2 2 2 1 2 2 2 3 4 4 5 10 15 18 29 39 33 42 29 27 20 11 28 32
100 100 100 100 100 100 100 100 93 68 45 49 47 11 6 7 5 4 3 2 2 2 2 2 2 2 2 2 3 5 5 5 9 17 18 25 32 34 36 39 34 19 16 28 36
100 100 100 100 100 100 100 100 82 57 43 53 41 12 7 6 4 3 2 2 2 2 2 2 2 2 2 2 2 4 6 7 10 12 20 23 30 23 32 32 36 24 22 29 39
100 100 100 100 100 100 100 92 69 49 48 53 37 15 6 5 4 3 2 2 2 2 2 2 2 2 2 2 2 3 6 7 9 13 18 22 27 35 29 24 28 30 28 27 32
100 100 100 100 100 100 100 80 58 46 52 48 28 14 6 6 4 3 2 2 2 2 2 2 2 2 2 2 2 3 7 8 9 12 18 30 24 24 29 25 22 24 22 23 25
100 96 95 100 100 100 95 61 50 56 51 41 25 12 7 6 4 3 3 2 2 3 2 2 2 2 2 2 3 3 8 9 9 10 15 19 27 28 22 25 23 21 22 30 30
93 89 98 100 100 100 70 61 53 61 43 37 20 12 12 7 5 4 4 2 2 3 2 2 2 2 2 2 3 4 7 10 10 10 12 16 20 22 19 22 30 30 23 24 38
83 98 100 100 100 91 65 57 60 62 45 32 18 19 19 10 6 4 4 3 3 3 2 2 2 2 2 2 3 4 5 10 10 11 12 15 20 16 19 19 20 17 22 35 36
84 100 100 100 100 75 69 66 65 57 46 28 20 25 27 15 7 5 4 4 3 4 2 2 3 3 3 3 4 4 4 8 10 11 12 15 16 13 16 20 24 30 28 33 42
100 100 100 100 79 82 77 76 75 52 43 26 22 35 32 21 9 7 6 5 3 4 3 3 3 4 3 4 4 5 7 8 12 11 11 13 13 13 14 20 25 29 29 36 44
100 100 100 95 84 85 88 75 72 53 48 28 22 37 37 26 10 9 7 7 5 4 4 4 4 4 4 5 6 7 8 9 14 14 13 16 15 16 15 16 18 22 23 29 43
100 100 100 89 92 91 95 79 71 53 48 27 29 36 41 33 14 13 8 7 8 5 6 6 5 5 5 5 7 8 12 14 18 19 15 16 15 14 15 16 17 18 20 27 32
100 99 100 97 89 91 89 81 64 50 44 28 32 36 44 47 23 14 10 8 9 10 6 7 7 6 6 6 6 8 12 15 18 20 19 15 13 14 15 17 19 20 20 22 26
99 100 94 95 99 88 87 79 64 51 49 28 31 39 41 57 44 28 13 10 9 11 12 8 9 10 10 8 9 10 11 17 20 23 21 18 15 16 16 17 18 18 19 22 25
93 100 94 100 94 95 91 77 68 56 46 30 29 35 41 52 54 46 33 18 13 10 13 13 10 10 13 12 12 13 13 17 25 31 28 23 19 17 17 17 17 18 18 20 24
98 93 99 100 99 96 88 77 64 60 45 34 32 33 37 46 53 55 53 40 28 20 12 13 14 12 13 16 16 17 18 19 23 27 31 31 27 20 19 18 18 19 20 21 22

GFSSW_250_rhum_102.txt.gz
RH
55 54 58 100 97 84 91 92 82 75 55 51 42 30 29 20 8 4 5 5 4 4 3 2 2 2 2 2 2 3 3 3 3 5 14 30 21 26 20 18 17 42 56 99 85
61 54 60 96 100 91 94 82 65 69 64 55 45 33 27 22 7 5 5 5 4 3 2 2 1 2 2 2 2 2 3 4 6 7 16 26 19 24 23 19 14 26 30 76 91
56 63 68 90 98 98 99 91 65 55 73 62 42 37 26 17 5 5 6 6 4 2 2 1 1 2 2 2 2 2 3 6 8 7 12 15 23 23 28 20 20 26 39 32 69
50 70 68 88 93 100 88 86 68 64 65 58 48 37 25 17 6 6 6 6 3 2 2 2 2 2 2 2 2 3 4 6 9 8 14 14 24 27 24 20 23 24 22 35 77
47 63 64 83 99 100 98 88 68 76 67 64 51 33 28 19 6 6 5 4 3 2 2 2 2 2 2 2 2 3 4 7 10 12 13 16 26 28 25 27 26 36 38 40 60
56 62 75 88 99 96 99 87 86 85 75 68 53 31 41 12 6 6 6 3 3 2 2 2 2 2 2 2 2 3 4 7 12 15 16 23 20 23 28 24 31 30 47 58 55
61 64 79 99 100 93 100 89 100 88 66 66 46 37 33 10 7 7 5 3 3 2 2 2 2 2 2 2 2 3 5 7 10 12 14 20 22 18 26 27 34 33 41 66 76
55 75 92 100 100 96 94 100 99 91 67 63 50 49 34 9 7 5 3 3 2 2 2 1 2 2 2 3 2 3 5 7 12 17 17 20 20 22 24 28 32 38 35 42 84
74 75 94 100 100 93 100 100 100 96 67 64 52 64 31 11 7 4 3 3 2 2 1 1 2 2 2 2 2 3 4 7 11 17 28 24 19 26 26 26 28 37 39 35 46
83 90 100 100 100 100 100 100 100 88 78 62 62 59 23 11 6 4 3 3 2 2 1 1 2 2 2 2 2 3 4 8 12 19 22 20 28 33 33 34 24 31 39 38 50
100 100 100 100 100 100 100 100 100 89 69 54 58 50 26 8 4 4 3 2 2 1 1 2 2 2 2 2 2 3 3 8 14 19 23 28 32 45 24 29 29 22 33 42 48
100 100 100 100 100 100 100 100 97 83 71 62 54 55 21 6 5 4 3 2 2 1 2 2 2 2 2 2 3 3 4 7 14 22 28 35 29 34 21 22 21 28 28 36 42
100 100 100 100 100 100 100 100 88 79 65 59 58 43 12 5 5 3 3 2 2 1 2 2 2 2 2 3 3 4 4 8 11 23 32 37 22 25 28 29 44 54 34 25 34
100 100 100 100 100 100 100 98 90 80 64 54 58 25 8 5 6 3 3 2 2 2 2 2 2 2 2 3 3 4 4 4 13 18 25 25 22 30 32 42 50 43 52 23 25
100 100 100 100 100 100 100 94 90 69 58 59 43 18 7 7 6 3 3 2 2 2 2 2 2 2 2 3 3 4 4 4 11 22 22 22 29 38 40 33 42 50 69 58 22
100 100 100 100 100 100 95 95 77 70 53 58 35 17 12 8 6 3 3 2 2 2 2 2 2 2 2 3 3 4 5 6 8 19 19 26 33 50 40 45 65 45 63 49 41
100 100 100 100 100 96 93 92 75 60 59 47 36 22 15 7 6 4 3 2 2 2 2 2 2 2 2 2 2 4 5 8 8 14 25 30 27 46 79 66 55 49 46 49 32
100 100 100 100 99 90 91 82 73 55 60 51 32 24 14 11 7 4 4 3 2 2 3 2 2 2 2 2 2 3 5 8 9 11 18 26 28 31 49 63 56 74 83 37 26
100 100 100 100 87 88 83 76 65 51 56 44 32 22 16 17 9 5 4 3 2 2 3 2 2 2 2 2 3 3 4 8 10 13 17 22 28 28 33 33 37 49 62 62 48
100 100 100 92 84 81 77 78 54 57 57 39 32 19 21 25 11 6 4 4 4 3 3 2 2 2 2 3 3 3 4 6 9 12 14 22 26 28 30 42 37 37 36 39 43
100 100 96 80 82 71 90 72 54 62 56 37 26 26 27 27 17 10 4 4 4 4 4 3 3 2 2 3 4 4 5 7 13 16 16 17 21 23 32 36 44 35 33 32 42
100 100 79 76 74 90 89 58 58 64 52 37 24 32 32 27 20 10 9 4 4 6 4 4 4 4 3 3 4 5 6 6 9 18 18 18 20 21 27 27 22 26 32 29 29
100 87 75 71 81 95 84 60 66 59 47 33 28 29 31 33 30 13 10 9 6 5 7 5 6 4 5 4 4 5 8 8 11 20 19 18 19 20 20 22 26 24 25 30 36
91 80 75 74 96 97 70 64 68 54 50 35 27 32 34 38 40 27 14 13 10 7 6 9 6 7 6 6 7 6 6 10 13 18 21 19 18 17 16 17 20 26 30 32 27
73 77 73 91 94 93 71 66 69 53 53 43 30 30 36 45 50 47 23 20 18 15 11 7 10 9 9 7 8 10 8 8 14 17 21 20 16 16 18 18 18 21 25 26 28
71 75 80 93 95 80 75 70 63 54 52 46 39 30 35 43 55 58 42 35 28 28 15 12 8 8 10 11 9 11 12 15 16 18 20 22 20 17 16 15 16 18 20 23 27
84 84 86 90 95 74 75 72 67 56 54 48 46 35 33 36 44 55 55 53 50 45 36 22 16 10 8 11 10 11 13 15 16 17 22 28 29 25 19 16 16 16 16 18 19

GFSSW_250_rhum_105.txt.gz
RH
84 83 52 49 41 44 52 64 74 82 85 74 56 66 50 33 24 13 6 4 4 5 4 3 2 2 1 1 1 1 1 2 3 3 4 7 8 10 16 22 21 20 30 57 86
75 85 52 42 44 49 48 67 74 75 86 80 62 58 48 37 25 11 7 4 4 4 3 2 2 2 1 1 1 1 1 2 3 4 4 7 8 9 12 22 17 22 24 36 64
90 72 64 49 48 49 55 62 74 79 87 79 63 57 48 35 28 13 5 4 4 4 3 2 1 1 1 1 1 1 2 2 3 4 4 9 10 10 12 19 16 23 40 37 69
89 79 58 54 56 50 60 62 72 82 85 89 62 64 47 38 28 10 5 4 5 4 2 2 1 1 2 1 1 1 2 3 4 5 5 8 14 13 16 12 21 26 30 51 63
73 78 64 63 62 61 66 75 77 87 90 96 77 60 51 50 20 9 4 4 5 4 2 2 2 1 2 1 1 2 2 3 5 6 5 13 24 19 19 16 30 27 52 34 58
66 70 64 71 70 77 81 80 83 89 96 87 75 59 59 45 22 9 4 5 5 3 2 2 2 2 1 1 2 2 3 4 5 5 8 16 32 22 24 18 25 30 46 69 45
72 67 74 79 78 80 93 95 93 92 100 76 71 60 56 47 20 7 5 5 4 2 2 2 2 1 1 1 2 2 2 4 5 6 8 16 28 15 24 22 22 30 48 64 88
68 77 72 96 99 94 92 100 99 97 100 74 65 73 58 37 15 5 6 5 3 2 2 2 2 1 1 2 2 2 2 3 6 6 10 14 51 35 30 21 22 34 42 46 91
86 81 86 99 100 100 93 100 94 100 96 78 72 68 57 29 8 6 6 4 2 2 2 2 1 1 1 2 2 2 2 3 4 7 16 19 30 67 23 20 25 40 42 44 48
90 95 97 100 100 100 99 100 100 97 97 78 82 55 56 23 9 5 6 3 2 2 2 2 1 1 1 2 2 2 3 4 5 6 9 21 30 56 29 22 24 30 33 43 52
99 100 100 100 100 99 100 96 100 100 88 81 70 61 47 18 9 6 4 3 3 2 2 1 1 1 2 2 2 3 3 4 5 7 13 20 27 39 90 36 31 33 40 38 52
98 100 100 100 100 91 100 100 99 95 90 81 65 61 43 17 6 5 4 4 2 2 2 1 2 2 2 2 3 3 4 4 5 6 14 14 34 40 77 40 25 29 38 42 44
100 100 100 100 100 92 97 100 100 96 93 72 64 61 39 14 5 5 4 3 2 2 1 2 2 2 3 3 3 4 4 4 5 8 10 18 37 38 37 34 93 34 25 45 42
100 100 100 100 100 93 99 100 100 100 86 74 57 63 32 9 5 6 4 2 2 2 1 2 2 2 3 3 3 3 5 5 5 7 11 16 34 61 62 49 70 35 35 33 40
100 100 100 100 100 90 100 100 100 96 78 62 60 54 21 7 6 6 4 2 2 2 2 2 2 2 3 3 3 4 4 5 7 9 11 16 28 61 78 70 70 53 22 34 39
100 100 100 100 97 96 100 100 100 88 69 59 59 39 16 8 7 5 4 2 2 2 2 2 2 2 3 3 3 4 5 6 8 16 18 22 26 54 92 76 80 50 53 33 39
100 100 100 100 100 100 100 100 96 82 63 62 46 28 18 11 9 6 4 2 2 2 2 2 2 2 2 3 4 4 5 6 7 14 25 26 39 54 50 55 100 89 54 35 34
100 100 100 100 100 100 100 99 89 65 66 60 38 27 19 14 8 8 5 3 2 2 2 2 2 2 2 2 4 4 6 6 6 9 19 27 39 49 51 71 79 82 45 33 44
100 100 100 100 100 100 100 92 74 73 64 42 36 26 20 13 10 9 5 3 2 2 2 2 2 2 2 2 3 4 6 8 10 12 17 34 47 54 45 51 66 72 64 68 98
100 100 100 100 100 100 100 92 69 62 57 37 36 27 21 15 14 9 8 4 3 3 2 2 2 2 2 2 3 4 5 9 14 13 26 35 47 56 54 50 61 73 79 100 100
100 100 100 100 100 100 98 70 82 63 43 43 34 29 24 23 21 9 8 5 3 4 4 4 3 3 2 2 3 4 6 6 12 18 26 33 50 69 66 74 68 56 61 68 92
100 100 100 100 100 97 77 85 60 58 44 44 35 32 29 29 29 13 7 8 5 4 4 4 4 3 3 3 3 4 6 7 10 15 20 36 43 58 85 73 78 78 60 51 54
100 100 100 100 100 81 88 84 63 51 47 47 36 35 32 36 39 31 9 7 8 7 6 6 6 5 4 4 4 5 6 6 8 17 20 26 37 52 60 77 86 86 72 70 69
100 100 100 100 91 84 91 67 67 49 48 44 39 38 33 34 39 40 23 10 9 9 8 7 7 7 7 5 5 5 7 9 13 25 25 25 29 41 45 49 63 70 64 69 74
100 100 100 99 80 96 82 70 61 52 49 46 45 39 38 39 42 45 33 17 12 10 10 10 8 8 8 9 6 6 6 9 10 18 23 23 25 32 40 38 37 35 50 55 55
100 100 100 84 97 92 75 73 61 54 50 45 46 37 38 40 44 48 45 33 27 22 16 13 11 10 9 10 11 8 9 8 10 12 22 30 26 23 21 26 28 28 26 28 32
100 100 93 86 97 92 77 72 62 56 52 46 44 37 36 42 47 46 53 51 49 46 36 26 17 13 12 11 11 14 12 10 11 12 16 26 30 29 26 24 24 28 28 29 31

GFSSW_250_rhum_111.txt.gz
RH
73 94 96 100 99 98 100 93 100 100 100 78 66 66 59 74 66 70 69 61 54 40 25 16 8 7 7 7 6 6 6 8 8 8 9 4 5 6 4 3 3 2 4 8 8
95 66 68 98 99 100 100 83 100 97 100 92 74 63 68 71 71 64 70 55 42 32 20 9 10 7 7 6 5 5 5 6 6 6 5 4 4 4 3 3 2 3 3 7 11
92 98 85 85 100 100 100 76 70 100 100 97 74 79 71 61 65 65 68 54 37 30 12 6 8 6 6 5 4 4 4 3 3 3 3 3 4 4 3 2 2 2 3 6 12
100 100 96 74 71 100 96 100 76 100 100 90 82 83 70 62 67 64 60 54 38 22 8 6 6 6 4 3 2 2 2 2 2 2 2 2 2 2 2 3 2 2 3 7 27
100 100 100 98 100 90 94 83 81 95 100 89 88 75 71 68 76 71 60 48 30 18 6 5 6 4 3 2 2 1 1 1 1 1 1 2 2 2 2 2 2 2 3 7 52
22 98 100 100 100 99 100 96 98 98 99 100 84 81 71 71 76 66 55 40 25 11 6 6 7 4 3 2 2 1 1 1 1 1 1 1 1 1 2 2 2 1 3 8 46
12 68 98 100 100 100 98 100 95 100 100 93 91 81 74 90 75 62 53 28 15 8 5 6 5 3 2 2 1 1 1 1 1 1 1 1 1 2 2 2 2 2 3 9 51
13 14 21 41 100 100 97 100 100 100 100 91 91 90 82 88 70 64 41 22 10 6 5 6 3 2 2 2 1 1 1 1 1 1 1 1 2 2 2 3 3 2 4 12 50
12 10 12 24 93 100 100 100 100 100 100 100 96 95 97 82 73 57 31 15 6 6 7 4 3 2 2 1 1 1 1 1 1 1 1 2 2 2 4 5 4 4 5 13 59
10 8 10 13 28 70 99 100 100 100 100 96 99 95 96 99 71 44 23 10 6 8 6 3 2 2 1 1 1 1 1 1 1 1 1 2 2 3 5 6 6 6 5 15 52
10 10 15 24 26 34 76 100 100 100 100 100 100 100 100 78 58 34 18 9 7 7 3 3 2 1 1 1 1 1 1 1 2 2 2 2 3 3 4 8 8 6 7 17 68
8 12 12 19 26 44 80 100 99 100 100 100 100 100 91 74 49 32 13 8 7 4 3 2 1 1 1 1 1 1 1 2 2 2 2 2 3 4 7 12 11 10 8 18 44
9 10 12 21 30 39 41 60 100 100 100 100 100 98 78 67 42 17 10 7 6 3 2 2 1 1 1 1 2 2 2 2 2 2 3 3 4 6 8 18 15 11 8 19 49
8 11 15 19 24 33 62 63 98 100 100 100 100 93 84 62 29 15 6 8 3 2 2 1 1 1 2 2 2 2 2 2 2 4 4 5 7 8 12 16 15 11 9 20 42
12 12 13 18 32 39 43 98 100 100 100 100 100 94 76 43 20 8 9 4 3 2 2 1 1 2 2 2 2 2 2 3 4 6 8 8 8 14 18 18 15 18 14 24 41
10 12 15 24 36 52 83 100 100 100 100 100 100 90 57 25 8 7 9 4 3 2 2 2 2 2 2 2 2 2 3 4 5 6 6 12 16 20 41 40 29 32 27 29 43
11 14 17 31 58 86 100 100 100 100 100 100 97 70 37 16 9 8 10 5 3 2 2 2 2 2 2 2 3 3 3 4 5 8 9 13 27 35 32 51 75 58 76 47 51
16 18 32 45 99 100 100 100 100 100 100 100 82 49 31 17 8 10 12 5 3 2 2 2 2 2 2 2 4 4 4 6 6 8 8 16 30 38 47 59 63 52 100 99 53
18 24 53 70 100 100 100 100 100 100 100 93 57 41 29 15 8 12 13 8 3 2 2 2 2 2 2 3 5 6 6 6 6 8 15 17 26 51 68 64 83 61 99 100 98
20 35 64 100 100 100 100 100 100 100 93 64 44 35 29 18 7 11 13 8 4 2 2 3 2 2 2 3 4 6 8 10 10 14 16 24 34 47 86 100 100 100 76 71 95
35 35 96 100 100 100 100 100 100 96 73 47 37 35 34 24 10 11 11 8 4 2 2 3 3 2 2 3 4 7 9 11 13 18 19 22 37 53 71 69 85 100 98 100 100
24 91 100 100 100 100 100 100 100 85 53 41 39 36 37 34 23 12 12 9 6 3 3 3 4 3 3 4 4 7 8 11 16 22 23 48 49 64 74 72 94 99 100 100 100
50 100 100 100 100 100 100 100 91 64 44 42 39 40 41 44 33 22 12 10 9 6 4 4 5 4 3 3 5 5 10 12 17 16 28 33 45 57 75 68 87 100 100 100 100
89 100 100 100 100 100 100 100 78 46 44 46 43 42 44 50 40 34 16 10 10 12 8 6 5 6 6 5 5 6 9 16 17 17 20 27 46 72 72 80 79 83 97 100 100
100 99 100 100 100 100 100 86 62 44 48 45 47 43 46 48 57 51 28 16 12 14 14 12 9 6 6 7 5 6 9 11 16 20 25 29 38 44 57 79 86 100 99 95 100
93 97 100 100 100 100 96 78 51 47 52 48 48 46 44 45 62 72 44 39 19 22 21 16 16 12 7 6 9 7 7 9 9 13 26 35 41 52 52 56 82 99 100 100 94
95 100 100 100 100 100 83 65 50 49 48 48 47 47 45 47 52 58 60 61 41 37 34 29 22 16 14 11 7 9 10 8 8 10 15 27 40 46 51 69 76 80 67 89 91

GFSSW_250_rhum_114.txt.gz
RH
89 87 81 92 88 86 87 74 74 85 91 84 91 95 100 90 83 72 58 61 59 54 49 38 27 18 10 11 8 10 10 12 12 11 10 9 8 7 6 4 2 2 3 4 5
30 67 97 93 100 91 86 90 80 80 87 87 86 85 100 97 86 82 63 64 59 56 55 35 25 14 10 8 9 10 10 10 9 9 9 8 6 6 4 4 2 2 3 3 4
7 10 16 94 100 97 99 90 94 94 87 81 85 91 100 96 95 70 70 71 56 60 50 35 27 14 7 7 7 8 9 8 8 8 8 8 8 5 3 3 3 2 3 4 4
6 7 8 12 50 100 100 87 78 97 85 83 77 84 100 100 92 94 83 63 57 61 40 33 19 11 6 8 8 8 6 5 6 5 6 7 5 4 4 4 2 2 5 6 5
8 6 8 10 10 40 100 99 86 96 95 89 85 100 100 97 92 84 69 62 67 51 32 22 11 6 6 8 8 7 5 3 4 4 4 4 4 4 5 5 3 2 3 3 5
6 5 8 8 9 9 42 100 98 100 96 100 97 99 100 99 98 83 78 70 62 44 24 13 6 5 7 8 5 4 3 2 2 2 2 3 2 2 3 3 2 2 3 4 5
8 6 7 8 9 10 11 28 87 100 92 96 100 100 100 100 93 84 84 65 60 34 14 7 5 6 9 5 3 2 2 2 2 1 1 2 2 2 2 3 2 2 3 4 7
9 8 8 10 9 9 11 14 24 100 100 92 100 100 100 100 94 87 75 62 38 20 8 5 6 9 5 3 2 2 2 1 1 1 1 1 2 2 1 1 2 2 2 4 6
8 7 10 9 10 10 14 16 19 68 100 100 100 100 100 94 95 83 72 48 23 12 6 5 9 7 4 2 2 1 1 1 1 1 1 1 1 1 1 1 1 2 2 5 5
7 8 10 9 10 10 18 17 30 77 100 100 98 92 95 99 97 83 60 33 13 5 5 9 8 5 2 2 1 1 1 1 1 1 1 1 1 1 1 1 1 1 3 5 5
6 7 9 10 12 14 18 19 31 36 23 81 100 100 100 100 88 67 40 17 5 5 9 9 5 3 2 2 1 1 1 1 1 1 1 1 1 1 1 1 1 2 3 6 8
5 6 8 9 11 14 15 17 26 26 44 72 98 100 100 100 67 36 14 7 8 11 11 5 3 2 2 1 1 1 1 1 1 1 1 1 1 2 2 1 2 3 6 6 81
4 6 8 9 13 14 16 21 22 33 68 85 100 100 98 75 46 15 9 9 14 14 5 4 2 2 1 1 1 1 1 1 1 1 1 1 1 1 2 2 3 4 8 11 100
4 7 9 10 11 15 24 23 34 49 88 100 100 100 88 48 21 13 13 16 15 7 4 2 1 1 1 1 1 1 2 2 2 2 1 2 2 2 2 2 3 6 12 14 100
6 8 8 10 12 30 41 57 82 88 100 100 100 95 61 37 18 17 15 16 9 3 2 1 1 1 1 1 1 2 2 2 2 2 2 2 2 2 2 3 3 9 15 15 65
6 7 9 11 19 36 51 74 99 100 100 100 100 100 66 29 20 13 15 10 4 2 2 1 1 1 2 2 2 2 2 2 2 2 2 2 2 3 2 3 4 9 23 17 44
6 8 11 18 31 43 53 89 100 100 100 100 100 95 45 28 14 13 11 6 3 2 2 1 1 2 2 2 2 2 2 2 2 2 2 3 3 3 4 4 4 10 21 19 45
7 11 19 34 38 51 92 100 100 100 100 100 100 72 37 14 12 12 9 5 3 2 1 1 2 2 2 2 2 3 3 3 3 3 3 3 4 5 6 6 5 10 23 25 29
10 20 41 49 62 82 100 100 100 100 100 100 94 52 22 14 14 11 9 6 3 2 2 2 2 2 2 2 3 4 4 6 5 5 6 8 8 12 8 7 8 11 25 39 100
17 24 44 57 85 99 100 100 100 100 100 98 67 41 20 10 15 11 8 5 2 2 2 2 2 2 2 3 4 4 5 7 8 7 7 7 21 24 15 11 14 16 27 33 88
16 26 59 97 100 100 100 100 100 100 96 63 45 27 14 10 14 13 11 5 3 2 2 2 2 2 2 3 4 5 8 10 11 10 10 12 24 36 46 30 33 17 27 34 57
20 48 70 100 97 100 100 100 100 96 68 44 32 26 16 14 12 13 12 5 3 2 2 3 3 2 2 3 4 7 8 15 20 17 18 21 34 50 57 61 48 48 38 36 35
44 67 95 89 98 100 100 100 99 66 46 36 35 32 22 18 14 13 14 8 5 4 3 3 4 4 3 3 5 8 12 20 25 25 28 31 40 54 64 71 66 51 56 50 44
60 79 89 91 100 100 100 100 70 48 40 38 41 41 34 25 17 14 12 14 11 9 7 4 4 5 4 3 5 8 16 22 24 30 30 41 47 78 79 81 81 59 49 47 44
71 75 95 100 100 100 100 78 51 44 40 42 45 44 40 34 28 22 15 12 13 15 10 10 6 4 6 4 4 6 11 19 30 31 34 45 51 49 75 79 68 66 71 56 56
60 83 100 100 100 100 96 52 49 43 43 44 46 45 43 42 40 31 23 23 14 14 18 17 18 12 5 7 8 6 8 13 16 23 26 31 39 55 70 60 73 66 73 78 72
70 91 100 100 100 100 74 53 45 42 43 43 49 48 45 45 49 42 35 31 27 22 16 17 22 21 19 11 7 10 10 9 11 22 25 39 53 47 55 64 78 75 78 75 67

GFSSW_250_rhum_117.txt.gz
RH
10 8 9 21 45 100 100 100 100 100 98 97 89 84 76 63 58 58 73 75 71 65 66 64 53 43 28 17 21 16 9 8 9 10 13 16 22 27 29 30 22 8 6 9 3
16 10 6 7 8 18 53 100 100 100 98 91 92 93 85 80 73 69 78 75 76 71 76 74 50 37 30 17 19 13 6 8 10 8 10 14 15 15 16 22 17 6 7 9 2
17 13 7 6 6 7 8 10 87 100 100 88 96 87 91 86 86 86 84 91 83 62 58 68 58 35 24 16 18 9 6 8 9 8 9 13 13 12 11 17 15 10 8 6 2
14 10 9 7 5 6 7 9 11 62 99 99 99 94 99 98 90 99 90 91 74 62 66 75 54 32 26 19 13 5 6 9 8 9 10 9 9 10 7 14 9 4 5 2 2
13 9 9 7 5 6 8 9 9 12 38 92 87 93 91 90 98 100 97 95 89 80 71 65 48 23 21 14 9 5 7 8 8 9 9 7 7 7 6 9 7 4 4 2 2
9 9 8 7 6 6 8 8 9 9 12 35 56 85 95 93 97 98 100 100 94 86 79 63 31 19 12 8 6 8 8 7 9 7 5 5 5 4 6 6 4 4 4 3 3
10 8 7 8 7 8 7 8 10 9 9 12 17 52 100 100 100 98 92 100 92 93 85 45 19 9 6 6 6 7 8 9 8 5 4 3 4 4 6 3 3 2 2 2 4
10 6 7 7 7 7 9 9 10 10 10 11 13 14 37 83 94 91 84 87 100 76 53 21 9 6 6 6 6 7 6 4 4 2 2 2 3 3 3 3 3 2 2 2 3
7 6 6 6 7 7 9 10 9 10 9 12 11 12 36 88 96 99 85 82 81 54 27 12 6 6 7 9 7 5 3 2 2 2 1 2 2 1 2 2 2 2 2 2 2
5 4 4 5 7 8 9 8 10 11 11 12 14 18 15 23 34 52 66 60 32 23 13 8 7 9 8 8 5 3 2 2 1 1 1 1 1 1 1 1 2 2 2 2 2
4 3 4 5 7 8 7 12 12 10 12 15 15 16 27 24 32 57 53 22 11 7 8 9 10 10 8 4 3 2 1 1 1 1 1 1 1 1 1 1 1 1 1 2 2
3 3 4 5 7 7 10 13 16 20 21 18 23 36 62 84 72 44 14 10 7 7 10 12 12 6 4 2 2 1 1 1 1 1 1 1 1 1 1 1 1 1 1 2 3
3 3 4 6 7 8 12 20 35 35 38 85 49 52 61 44 26 13 7 7 12 14 11 8 4 3 3 2 2 1 1 1 1 1 1 1 1 1 1 1 1 1 2 2 3
2 3 5 5 8 11 18 29 53 68 82 58 56 49 40 20 13 14 12 19 13 9 5 4 3 3 2 2 1 1 1 1 1 1 1 1 1 1 1 1 1 2 2 2 3
3 3 4 7 13 16 34 45 100 95 50 78 83 69 36 27 11 19 23 10 8 6 4 4 3 2 2 1 1 1 1 1 1 2 2 2 2 1 1 1 1 2 2 3 3
3 4 6 11 16 32 80 100 92 61 99 100 99 56 32 15 29 24 12 8 7 5 4 2 2 1 1 1 1 1 1 1 2 2 2 2 2 2 1 2 2 3 4 4 4
3 5 10 17 23 74 100 100 96 100 100 100 52 33 24 34 24 12 10 8 6 3 2 1 1 1 1 2 1 1 2 2 2 2 2 2 2 2 2 2 4 5 6 6 10
5 8 17 60 99 100 100 100 100 100 100 76 48 34 32 28 16 11 8 6 3 2 2 1 2 2 2 2 2 2 2 3 3 3 3 3 4 3 2 4 6 8 9 11 20
7 11 39 100 99 100 100 100 100 100 100 77 41 31 28 21 14 8 6 4 2 2 2 2 2 2 2 2 2 2 4 4 4 4 4 3 3 3 3 6 10 12 24 39 100
9 32 83 88 100 100 100 100 100 100 99 67 34 25 21 18 11 7 5 3 2 2 2 2 2 2 2 2 3 4 4 5 6 5 4 4 4 4 4 9 10 14 40 100 100
18 64 57 89 100 100 100 99 100 100 89 57 29 18 19 17 13 9 5 3 2 2 2 2 2 2 2 4 5 5 6 9 9 8 6 5 4 5 5 13 15 20 48 100 100
30 39 81 88 100 100 100 100 93 82 68 37 19 16 16 15 14 9 5 3 2 2 2 3 2 2 3 5 6 6 8 11 13 12 11 7 5 6 6 12 20 25 100 100 100
45 78 81 89 100 100 99 82 61 52 42 25 20 18 14 14 14 12 7 5 3 3 3 4 3 3 4 5 6 6 12 20 19 20 17 13 13 8 8 12 22 30 100 100 100
62 72 82 95 98 99 76 57 50 41 32 27 26 24 16 13 14 12 16 8 5 4 3 4 3 3 3 5 6 8 20 29 30 26 23 25 23 15 13 14 22 27 100 100 100
59 77 82 90 100 78 62 52 44 38 37 35 32 29 22 16 14 14 15 17 12 11 7 4 5 4 4 4 5 11 21 26 36 30 26 31 34 32 21 19 20 28 34 100 100
67 73 84 100 82 64 56 48 42 41 42 42 39 37 34 27 20 18 15 14 16 16 14 9 6 5 6 4 4 8 23 25 33 42 37 33 43 44 40 25 24 29 32 50 100
69 74 92 90 65 58 54 47 43 42 45 47 46 43 42 38 28 25 20 17 17 16 18 18 14 12 8 7 6 7 11 22 28 32 38 42 50 46 40 39 31 21 29 33 34

GFSSW_250_rhum_123.txt.gz
RH
59 75 59 58 55 40 27 24 16 12 10 20 84 92 81 69 58 73 73 65 67 66 57 54 49 48 49 49 45 36 28 24 24 17 21 18 16 15 14 16 23 28 42 51 59
71 71 68 64 55 47 33 25 21 12 12 9 12 37 62 82 76 66 57 58 68 68 66 63 60 57 55 56 53 49 39 29 23 18 16 16 14 13 11 14 18 24 27 32 43
78 78 64 54 49 46 31 27 21 16 14 10 9 8 12 44 75 76 63 53 52 65 65 61 60 65 58 57 60 54 51 34 31 19 15 12 12 9 11 11 14 24 25 24 34
82 62 67 50 42 39 29 24 18 16 13 10 8 7 8 9 46 73 66 56 55 60 64 68 69 58 64 55 52 60 48 45 40 24 15 12 11 9 8 12 10 14 19 28 26
69 61 51 42 37 28 25 18 14 13 11 10 7 6 7 8 11 43 66 81 63 68 70 61 56 48 52 57 40 52 52 45 38 28 17 10 9 8 8 8 9 13 14 22 22
77 65 47 37 27 20 18 12 11 11 11 9 6 5 6 7 8 10 52 51 57 50 75 58 50 54 46 45 49 46 45 43 38 27 14 8 7 6 13 19 10 10 14 14 16
75 61 42 28 23 13 11 10 9 12 10 8 6 6 5 6 7 7 8 21 23 30 44 41 56 55 49 40 40 44 47 31 36 14 12 5 8 8 8 12 10 10 10 11 14
36 32 23 17 12 9 8 7 7 8 7 6 6 6 6 5 6 6 6 6 9 15 24 35 43 40 38 36 38 43 27 20 18 6 8 4 11 13 11 9 11 8 10 12 12
11 10 8 7 6 5 4 4 5 6 6 6 7 6 6 6 5 5 5 5 6 6 10 15 26 45 40 37 44 25 23 15 15 7 6 4 7 12 8 7 7 8 9 9 8
4 4 4 4 4 3 4 4 4 5 6 6 7 8 6 5 4 5 6 6 5 5 6 7 14 19 20 16 23 17 13 9 9 5 6 6 5 7 7 5 4 4 5 5 6
3 3 3 3 3 3 4 4 5 6 6 7 9 8 7 5 6 6 6 6 6 6 5 5 6 6 8 10 10 9 9 8 6 5 7 6 4 4 3 3 3 3 3 3 4
3 2 3 3 3 3 4 4 5 7 8 10 9 7 6 7 7 6 6 6 6 6 6 6 6 6 7 8 6 5 4 4 6 4 3 3 3 2 2 3 2 2 2 3 3
2 2 3 3 3 3 4 6 8 10 10 10 7 11 12 12 9 8 8 7 7 6 6 6 6 5 5 4 4 4 4 3 3 3 3 3 2 2 2 2 2 2 2 2 2
2 3 2 3 4 6 8 9 10 11 12 16 25 25 19 12 11 7 7 7 7 6 5 4 4 4 4 4 4 4 4 4 3 3 3 2 2 2 2 1 1 1 1 1 1
2 2 3 5 9 11 12 14 15 18 32 43 30 22 11 10 9 7 6 5 4 4 4 4 5 5 6 5 5 6 6 4 3 3 3 2 2 1 1 1 1 1 1 1 1
3 4 8 13 11 14 16 21 20 24 26 22 23 15 12 12 13 13 11 6 6 5 7 7 8 8 7 5 5 5 4 3 3 2 2 2 2 1 1 1 1 1 1 1 1
3 5 10 16 9 12 24 28 26 32 34 31 31 29 27 22 16 14 11 9 8 7 6 6 5 5 5 4 3 3 3 2 2 2 2 1 1 1 1 1 1 1 1 1 1
5 7 8 13 20 23 27 32 41 42 46 47 34 24 16 13 10 8 6 5 4 4 4 4 3 3 3 3 2 2 2 2 2 2 1 2 2 2 2 2 1 1 1 1 1
7 7 14 23 32 36 53 78 77 58 50 29 20 14 11 7 6 5 4 4 3 3 3 2 2 2 2 2 2 2 2 2 2 2 2 2 2 2 2 2 2 2 2 2 1
7 16 17 34 47 65 79 82 59 38 30 22 16 10 7 5 4 4 3 3 2 2 2 2 2 2 2 3 2 2 3 3 4 3 3 3 3 3 3 2 2 2 2 2 2
13 15 30 51 70 80 78 40 34 28 22 18 13 9 6 5 4 3 2 2 2 2 2 2 3 3 2 3 3 3 5 5 5 4 4 4 4 4 4 3 3 2 2 2 2
14 41 47 70 91 61 36 36 32 24 19 15 11 8 6 4 3 2 2 2 2 2 3 3 3 3 4 4 7 8 6 6 6 5 5 5 5 5 4 4 4 3 4 4 4
38 47 61 82 43 35 33 32 26 22 19 15 11 9 6 4 4 3 2 3 2 3 3 3 3 4 5 9 10 9 9 11 8 8 9 8 6 6 6 6 5 6 5 6 5
47 60 57 35 31 29 29 24 24 24 22 18 13 11 9 7 6 4 3 3 3 3 3 4 6 8 10 11 12 15 20 22 15 14 18 15 9 8 9 10 10 7 7 10 12
54 41 32 30 27 24 24 23 24 25 23 20 19 15 13 12 10 8 5 3 4 3 3 4 6 9 10 10 24 29 36 54 30 28 31 17 17 19 16 16 16 12 12 14 20
33 32 28 28 26 24 25 26 25 24 24 23 24 21 20 18 14 11 8 6 4 4 4 6 12 26 17 26 39 49 57 53 40 37 39 33 29 28 22 26 20 19 19 15 27
32 31 31 29 28 26 28 30 29 29 26 23 23 22 23 23 21 16 14 11 8 6 6 11 18 20 26 41 55 62 66 63 48 58 59 54 55 57 27 36 60 28 28 21 31

GFSSW_250_rhum_126.txt.gz
RH
100 100 100 93 70 73 63 50 46 37 28 23 17 12 64 100 92 67 84 76 61 52 41 46 44 46 46 33 32 37 37 40 39 40 39 35 28 24 21 25 26 19 33 28 45
100 100 100 88 76 68 65 55 43 43 32 23 16 14 13 25 89 84 64 62 61 51 48 42 50 44 48 47 42 37 41 40 40 39 36 31 27 30 25 24 31 27 22 26 34
100 100 100 98 91 67 72 68 56 41 34 27 19 17 14 11 12 61 77 62 59 57 49 42 44 51 43 49 49 42 43 44 42 38 36 35 26 28 26 28 37 28 18 20 23
100 100 100 100 87 67 54 70 60 50 39 27 22 19 16 12 8 10 17 46 46 44 50 45 42 36 46 38 38 43 48 48 48 41 40 37 31 26 26 32 27 33 18 17 17
100 100 90 75 58 45 29 49 46 39 31 26 20 19 16 14 11 8 9 8 20 35 34 32 39 32 32 37 31 36 38 43 44 34 33 33 33 23 19 22 20 17 23 12 11
100 58 45 43 48 53 23 20 34 31 21 18 16 14 13 14 11 7 8 8 7 9 17 24 27 21 37 34 27 27 32 33 35 37 26 22 29 18 29 22 16 12 11 14 15
41 42 44 28 36 25 13 9 12 12 12 10 10 11 11 11 11 7 6 6 7 7 7 12 25 22 28 27 28 25 25 24 28 29 27 19 30 24 34 18 13 12 17 14 19
16 17 20 15 16 9 7 6 7 6 6 7 9 8 8 8 7 6 5 6 6 6 5 6 9 16 27 28 34 34 30 22 27 22 19 15 41 29 22 12 11 9 10 12 13
9 7 8 8 6 6 5 4 5 5 5 6 6 6 6 6 6 6 5 5 5 5 5 5 5 8 16 21 19 33 40 36 27 18 16 11 30 24 12 7 10 9 10 11 13
8 8 8 6 5 4 3 3 4 4 4 4 4 5 6 7 6 5 6 6 6 6 5 5 4 5 7 12 19 22 21 20 19 14 11 8 13 14 10 8 9 10 9 8 7
7 8 6 4 3 3 3 3 3 4 4 4 5 6 6 6 6 6 5 6 5 5 4 4 4 4 4 6 10 13 18 21 12 12 8 7 7 7 10 11 7 7 6 6 6
5 5 3 3 3 3 3 3 3 3 4 5 6 7 8 7 6 5 6 5 4 4 4 4 4 4 4 4 5 6 6 7 7 9 12 12 13 8 8 7 5 4 3 4 4
5 3 3 3 3 3 3 4 4 4 6 6 7 7 6 7 7 6 4 4 4 3 4 4 4 4 4 4 4 4 4 4 4 4 4 5 6 4 3 2 2 2 2 2 3
3 3 3 3 3 3 4 4 4 4 5 6 8 8 8 6 5 4 4 4 5 5 5 5 4 4 4 4 4 4 4 4 4 4 4 4 4 3 2 2 2 2 2 2 2
2 2 2 2 3 4 4 6 7 8 8 8 7 6 7 7 7 6 5 5 4 4 4 4 4 4 4 4 5 5 5 5 5 4 3 3 2 3 2 2 2 2 2 2 2
2 2 3 4 6 9 10 10 8 8 9 8 8 9 8 7 7 7 7 6 6 6 6 6 6 5 4 5 5 5 5 4 4 4 4 3 3 3 2 2 1 2 1 1 1
3 5 8 10 8 9 11 12 13 17 15 15 17 14 12 11 10 9 8 7 8 8 7 7 6 5 6 5 6 6 5 7 7 6 5 4 3 3 3 2 2 1 1 1 1
7 10 13 14 13 19 26 25 20 15 16 18 16 15 16 14 13 13 12 12 10 11 10 9 9 10 9 9 8 7 7 6 6 5 5 4 3 2 2 1 1 1 1 1 1
15 20 27 30 30 26 21 20 18 16 14 12 11 9 8 8 8 7 7 6 6 7 7 6 6 5 5 6 6 5 5 4 4 3 2 2 2 2 1 1 1 1 1 1 1
39 62 64 40 30 28 25 21 18 13 11 9 8 6 5 5 4 4 4 4 4 4 4 4 4 4 4 4 3 3 3 3 2 2 2 2 2 2 2 2 2 2 2 1 1
44 42 37 34 30 31 26 21 16 13 12 10 7 5 4 4 4 4 3 3 3 3 3 3 3 4 4 3 3 3 3 3 4 4 4 4 3 3 3 3 3 2 2 2 2
40 36 32 33 30 27 24 19 17 14 11 8 6 4 4 3 3 2 3 3 3 3 3 4 4 4 4 3 4 6 7 7 7 6 5 5 4 4 4 3 3 3 2 2 2
35 34 31 30 29 25 22 20 16 13 10 8 6 4 3 2 2 2 3 3 3 4 3 3 4 5 6 10 14 16 12 11 8 7 8 6 6 5 5 5 5 4 3 4 4
32 32 32 29 30 25 23 20 16 14 11 8 6 5 4 3 2 2 3 3 4 4 6 7 8 13 14 22 22 10 14 11 10 14 11 9 8 8 10 12 8 7 7 8 10
30 32 32 31 30 29 27 23 20 18 16 13 10 7 5 4 4 3 3 4 5 6 8 12 16 18 21 25 28 24 22 17 19 26 20 10 11 17 30 14 16 12 15 18 28
30 31 30 30 30 30 29 30 25 22 22 19 17 12 9 6 4 4 4 4 5 8 12 19 17 24 32 50 39 50 46 34 38 53 49 21 14 34 37 41 46 28 38 100 100
30 32 32 32 29 29 28 31 31 30 29 28 24 22 16 13 9 7 7 9 14 16 21 29 34 31 48 67 52 53 58 61 62 70 61 54 53 51 41 49 94 68 100 100 100

GFSSW_250_rhum_129.txt.gz
RH
100 100 100 100 100 100 100 100 100 82 78 74 48 38 26 24 64 99 82 60 52 41 59 63 53 44 35 34 36 30 32 27 30 32 40 43 38 34 31 28 30 32 32 29 34
100 100 100 100 100 100 100 100 100 96 75 82 58 46 36 30 22 25 85 80 77 52 46 39 53 55 54 39 39 34 38 30 30 33 39 38 35 34 35 34 35 34 28 26 28
100 100 100 100 100 100 100 100 100 100 89 77 68 49 50 36 24 22 18 70 76 63 53 47 31 48 53 44 37 35 37 38 31 30 34 36 35 37 39 38 40 35 29 24 24
100 100 100 100 100 100 98 100 100 87 79 70 64 45 55 44 34 24 20 18 45 78 63 57 42 26 29 40 42 35 36 38 41 42 32 34 37 38 36 38 39 34 31 21 20
94 76 60 60 49 84 78 100 100 100 61 73 64 45 59 56 31 26 20 17 14 35 72 70 52 39 27 23 30 33 35 33 38 38 41 35 35 36 39 38 37 41 38 31 17
32 30 43 42 38 31 29 32 36 38 36 53 57 44 45 40 28 23 18 18 14 12 25 33 32 36 35 28 20 23 27 31 32 34 34 40 42 32 42 34 38 38 40 34 19
18 20 23 22 23 20 21 30 49 29 37 36 34 33 28 34 26 17 15 13 10 10 10 9 8 11 29 28 27 20 18 19 31 30 26 22 34 36 35 30 25 33 35 27 26
11 12 14 14 12 16 17 23 16 24 17 12 19 20 16 21 18 15 12 10 9 8 8 6 6 6 8 16 28 18 19 15 23 24 17 19 30 33 23 24 26 22 26 28 22
9 9 10 9 12 12 12 13 12 9 6 10 11 9 9 10 10 10 9 7 7 8 6 6 7 6 5 6 11 15 20 18 15 14 18 16 30 43 30 22 28 22 21 24 24
7 7 7 8 10 10 11 11 8 8 5 6 6 5 6 6 6 5 5 6 6 5 5 5 5 5 5 4 4 6 10 13 17 16 16 14 25 22 16 13 17 18 18 18 18
6 7 7 7 8 7 8 6 5 4 4 4 4 4 4 5 4 5 5 5 5 4 4 4 4 4 4 4 4 4 6 8 13 12 16 13 22 13 12 11 11 10 10 13 14
6 6 7 7 5 4 3 3 3 3 3 4 4 4 4 4 5 5 5 5 5 5 4 4 4 4 3 3 4 4 4 4 5 8 10 9 12 11 9 10 10 10 12 14 14
6 5 3 2 2 2 2 2 2 3 3 3 3 4 4 4 5 5 6 5 5 4 4 3 3 3 3 3 4 4 4 4 4 5 5 7 10 10 13 13 10 8 8 8 8
2 2 3 3 2 2 3 3 3 3 3 4 4 4 5 6 6 6 6 5 5 4 4 4 4 4 4 4 4 4 5 5 4 5 5 5 6 6 7 7 7 6 5 4 4
2 3 3 3 3 3 3 3 4 4 4 5 5 5 5 6 6 6 6 5 5 5 5 5 5 5 4 4 5 5 4 4 3 3 4 4 4 3 3 3 2 2 2 2 2
6 7 6 6 6 7 7 7 9 9 8 8 10 9 9 9 9 8 7 6 6 6 6 6 6 6 6 6 6 5 5 4 4 4 4 3 4 3 3 2 2 2 2 1 2
12 12 14 16 16 16 16 16 14 12 12 11 11 10 9 9 9 9 9 8 8 7 7 6 6 7 7 6 6 6 5 5 4 4 4 3 4 3 3 2 2 2 2 2 2
18 18 17 16 15 16 16 16 18 14 12 13 13 11 9 9 9 7 7 7 8 10 10 10 10 9 9 8 8 6 5 5 5 4 3 3 3 3 2 2 2 2 2 2 2
18 17 18 16 14 14 12 10 9 9 10 11 14 15 15 14 15 16 16 19 17 15 14 12 12 13 13 14 12 9 7 8 8 7 8 6 5 4 3 2 2 2 1 1 1
23 22 22 19 17 15 12 10 9 8 7 7 7 7 7 8 8 10 11 11 12 12 12 12 12 12 13 13 12 11 10 9 7 6 5 4 3 2 2 2 2 2 1 1 1
24 25 24 22 19 18 14 10 8 7 5 5 5 5 5 5 5 5 6 7 8 8 8 7 7 7 6 6 5 5 4 4 4 3 3 3 3 3 3 3 2 3 2 2 2
25 25 23 20 17 16 13 9 6 6 5 4 4 3 3 3 3 3 3 4 4 4 3 4 4 4 4 4 4 4 5 6 8 8 7 6 5 5 4 4 3 3 3 2 2
23 24 23 19 15 14 13 10 7 5 4 3 3 3 3 4 4 3 3 3 3 4 4 4 5 5 6 8 12 15 14 19 15 12 9 6 6 6 6 5 4 4 3 3 3
26 28 26 24 20 16 14 13 9 6 5 4 4 4 4 4 4 4 4 5 5 6 7 9 12 14 17 23 26 22 17 19 14 12 14 12 8 12 10 8 19 32 20 14 13
33 32 34 33 33 26 21 15 15 11 7 5 6 7 7 5 5 4 7 10 11 14 16 16 20 30 31 30 27 21 22 23 19 15 26 19 36 27 48 76 81 97 83 95 31
37 36 35 38 41 40 34 26 20 18 15 12 8 6 6 8 10 10 11 12 15 20 20 24 24 30 30 26 28 35 32 39 55 37 26 60 57 61 100 100 100 100 100 100 83
33 34 34 34 34 40 43 44 34 26 26 23 21 20 17 11 12 19 26 32 31 27 26 28 22 21 30 34 37 43 45 60 52 66 94 99 98 85 100 100 100 100 100 100 100

GFSSW_250_rhum_132.txt.gz
RH
99 88 80 96 100 100 100 100 100 100 100 84 81 100 84 65 53 46 44 87 71 70 58 60 56 44 44 43 50 54 39 45 46 42 46 44 45 43 44 45 46 38 36 41 44
100 100 97 96 99 88 79 100 80 95 100 100 100 97 69 77 68 54 42 38 76 68 69 53 53 47 36 44 40 47 49 43 46 40 44 41 42 43 39 40 44 43 40 38 42
80 99 96 100 97 100 100 95 100 96 100 100 100 100 89 98 93 56 60 36 44 73 71 66 46 46 44 30 38 39 42 49 47 40 37 34 32 34 36 37 38 40 38 36 32
71 93 71 52 86 100 97 100 88 100 100 95 100 100 100 99 92 75 63 51 29 45 64 67 54 52 45 37 28 34 37 40 46 42 39 37 31 27 29 34 35 35 34 36 32
29 44 34 30 37 60 64 88 100 96 100 94 95 95 69 79 81 76 76 60 37 26 33 58 52 54 49 43 33 25 31 34 37 36 36 37 34 29 27 30 34 35 36 38 37
12 17 16 20 20 32 48 51 66 68 61 81 79 49 53 60 72 57 59 57 43 30 19 20 30 40 40 35 40 34 26 29 32 35 31 38 35 36 32 29 33 33 31 34 37
8 8 10 11 12 18 27 30 37 35 44 48 65 78 67 48 63 53 40 46 41 31 18 15 15 19 23 26 25 25 28 21 24 27 30 33 41 37 38 30 30 31 32 30 34
6 6 7 7 8 12 13 24 24 25 26 30 47 86 99 73 70 48 39 43 33 22 19 14 12 12 13 12 12 17 23 24 23 18 19 26 36 39 34 35 36 40 33 31 32
4 5 5 6 7 8 9 13 15 19 24 25 21 17 21 41 44 43 46 37 22 16 16 13 9 8 8 8 9 10 14 16 17 17 17 16 27 40 32 28 30 34 36 30 31
5 6 6 7 8 8 10 10 12 12 15 16 16 14 16 16 25 26 25 21 12 10 10 9 8 8 8 7 5 5 8 11 13 13 15 20 22 20 24 20 26 24 27 32 35
4 5 6 7 7 7 8 10 10 13 12 14 15 15 11 12 14 12 11 8 6 7 7 8 8 7 8 7 5 5 4 6 8 10 16 18 32 20 16 16 18 19 19 22 24
3 4 4 5 5 6 6 8 10 8 9 10 12 10 9 7 7 6 5 5 4 5 6 7 7 6 6 6 5 4 4 4 7 13 13 8 28 13 12 12 15 17 15 16 17
4 4 3 3 3 3 3 3 6 5 6 5 6 5 6 5 5 4 4 5 5 5 6 6 6 5 5 4 4 4 3 3 3 4 5 5 8 6 9 11 11 12 14 13 12
4 4 4 4 3 3 3 3 3 3 3 3 4 4 4 4 4 5 5 6 6 6 6 6 6 6 5 5 4 4 4 4 4 4 4 4 5 6 6 7 8 9 9 10 8
10 9 8 6 6 4 4 4 4 4 4 4 4 4 4 4 5 6 6 6 7 8 8 8 7 6 6 6 5 4 4 4 4 4 4 4 4 3 4 5 5 5 5 6 6
14 12 11 8 8 6 6 6 6 6 6 6 6 7 8 8 9 9 9 9 9 8 9 9 8 8 7 6 6 5 5 4 4 4 4 4 4 3 3 3 3 4 4 3 3
9 10 10 10 12 12 12 8 8 8 8 8 8 9 10 11 11 11 12 12 14 12 12 10 10 8 8 7 7 6 5 5 5 5 5 4 4 3 3 2 2 2 2 2 2
10 9 8 8 8 10 12 15 19 20 14 15 13 13 12 13 16 14 14 13 13 12 12 12 9 10 10 8 6 5 5 4 4 4 4 4 3 3 3 2 2 2 2 2 2
12 8 8 7 6 6 7 8 11 14 16 17 20 20 17 20 22 22 19 17 17 16 16 15 17 15 12 10 7 6 6 6 5 4 4 4 4 4 3 3 3 3 2 2 2
13 9 8 6 5 5 5 5 6 7 8 11 14 18 19 21 23 21 19 18 16 17 18 18 19 15 13 12 11 10 11 9 8 8 7 6 6 5 5 4 3 3 2 2 2
16 14 10 7 6 5 4 3 4 4 4 5 5 6 8 10 15 18 18 18 19 19 18 18 18 18 16 16 14 13 11 9 8 6 5 4 3 3 2 2 2 2 2 1 1
19 17 14 11 8 6 5 4 4 3 3 3 3 3 4 4 5 5 7 7 9 9 8 8 8 8 7 6 6 6 5 5 6 7 7 7 5 5 5 4 4 3 3 3 3
28 21 18 17 13 10 7 6 5 5 4 3 3 4 3 4 4 4 4 5 5 5 5 6 6 6 6 6 10 16 20 20 22 24 23 14 9 10 6 6 7 5 4 4 3
41 35 30 26 19 18 16 12 8 8 7 7 6 5 5 5 5 5 5 6 6 6 7 8 7 13 17 23 28 37 35 40 51 53 25 20 18 17 26 48 27 14 8 7 5
48 45 43 38 36 28 25 20 17 15 10 13 13 10 14 14 14 15 13 12 13 17 21 21 29 27 29 30 43 58 68 62 57 51 47 60 40 92 99 99 80 51 27 41 36
42 47 50 52 46 43 42 37 30 23 20 16 10 12 16 17 16 22 18 20 25 30 34 34 44 43 43 49 71 82 65 80 72 50 82 100 100 100 100 100 100 100 100 85 100
40 41 45 49 54 55 51 47 47 42 32 24 23 23 22 21 19 19 23 31 39 39 40 42 39 42 59 88 93 98 86 99 93 99 100 100 100 100 100 100 100 100 100 81 100

GFSSW_250_rhum_135.txt.gz
RH
87 80 77 80 85 100 93 99 100 100 98 92 88 73 100 100 96 56 45 32 32 30 46 49 38 46 49 35 41 53 84 74 42 44 43 44 44 44 44 40 39 38 44 38 36
88 88 98 100 99 100 100 100 100 100 100 100 97 100 83 100 100 97 66 49 37 32 28 33 50 34 46 48 36 39 51 88 75 46 44 43 44 43 46 46 44 41 39 41 46
100 94 97 100 100 100 100 100 100 100 100 100 100 80 100 100 100 93 100 66 52 39 36 28 29 52 40 46 45 34 35 50 82 73 47 44 42 43 46 47 46 40 37 39 49
41 56 77 76 92 99 99 100 99 99 100 97 92 81 100 100 100 93 84 99 78 60 43 37 28 28 50 51 41 44 35 40 48 61 68 51 46 45 41 48 46 37 41 38 48
9 14 21 32 49 75 96 88 63 62 73 97 90 97 83 99 100 80 73 83 87 71 52 41 40 26 29 44 44 38 36 34 38 42 51 56 52 45 44 45 40 38 33 36 33
6 6 10 23 24 36 52 53 38 43 73 96 100 98 93 91 92 92 97 82 78 74 50 37 36 36 24 32 40 42 38 31 30 34 38 48 49 48 50 42 33 29 29 34 32
4 5 6 8 11 20 28 34 44 61 96 83 83 93 77 100 98 88 99 82 63 60 59 46 33 37 27 18 31 37 36 32 23 27 32 35 49 49 48 47 37 30 27 24 28
4 4 5 6 7 12 16 25 27 31 53 51 61 76 84 77 83 72 63 70 63 51 36 35 30 33 29 20 13 26 29 29 24 18 23 28 38 38 41 44 41 34 36 29 26
4 4 4 5 6 8 9 14 17 20 19 20 33 24 62 56 67 79 73 81 44 30 30 36 36 34 27 24 12 10 18 21 20 14 13 18 29 36 34 30 32 30 32 32 30
5 5 5 6 6 6 7 8 9 10 11 14 16 21 36 50 57 43 54 47 40 48 46 36 31 24 26 21 15 8 7 12 14 13 12 11 18 27 25 23 29 27 23 25 28
5 6 6 6 6 6 7 7 7 8 9 11 11 13 16 23 31 31 40 38 43 40 30 27 22 14 12 13 11 9 6 7 7 8 12 14 12 14 14 18 24 28 26 19 22
3 3 3 4 6 6 7 7 6 7 9 10 12 15 16 17 20 21 23 23 26 28 27 14 13 12 10 9 9 9 7 6 6 5 7 10 16 8 7 11 15 19 24 25 24
5 4 3 3 3 3 4 6 7 7 7 7 11 14 16 16 16 17 14 16 15 19 20 9 8 7 7 7 7 7 7 6 5 4 5 6 10 9 7 8 9 11 13 19 23
12 6 5 3 3 3 3 3 4 5 6 7 10 12 12 13 13 12 10 8 9 10 9 7 6 5 6 7 7 6 6 5 4 4 4 4 5 7 6 8 9 8 9 10 11
9 10 10 5 4 3 3 3 3 3 4 4 5 8 8 10 8 8 7 7 6 5 5 6 6 5 6 6 6 6 6 5 4 4 3 3 3 3 4 6 8 7 7 6 6
5 7 8 10 6 4 4 4 4 4 4 4 4 4 4 5 5 6 6 7 7 6 7 7 8 7 7 7 7 7 6 5 5 4 4 4 3 3 4 4 5 5 5 4 5
5 4 6 6 8 9 7 7 7 6 6 6 6 7 7 7 7 8 10 11 10 11 11 11 10 10 10 9 10 8 7 6 5 5 5 4 4 3 3 3 3 3 5 6 5
7 4 3 4 6 7 9 9 8 6 6 8 8 9 10 10 11 11 12 12 14 14 13 14 14 12 13 12 11 10 9 8 7 6 5 5 4 3 3 3 3 3 3 3 3
9 5 5 3 3 4 6 8 9 11 10 8 8 8 10 12 12 14 16 16 18 20 21 23 20 20 15 11 9 7 8 7 7 6 5 5 4 4 3 2 3 3 3 2 3
16 7 5 5 3 3 3 5 8 10 12 16 14 13 14 15 16 16 17 18 22 26 28 26 24 16 13 14 12 10 9 8 6 5 5 5 5 4 4 3 3 3 3 3 3
25 16 9 8 6 5 4 3 4 6 8 11 15 16 18 19 20 23 22 26 24 23 21 18 16 15 16 15 14 12 12 11 11 10 9 8 7 6 6 5 4 4 4 3 4
40 28 16 13 7 6 5 4 4 4 4 5 7 10 14 18 21 20 22 22 21 21 20 19 19 19 17 16 14 12 9 8 9 6 6 7 6 5 4 3 3 3 2 2 2
42 46 30 20 20 16 13 10 6 5 5 4 4 5 6 7 10 12 13 14 14 14 14 12 12 10 10 10 9 9 15 17 21 23 24 19 11 12 12 10 9 7 5 5 5
42 44 50 34 28 29 21 13 9 7 6 7 8 8 6 5 6 6 7 8 9 10 11 13 11 14 23 34 38 48 65 80 77 60 59 51 32 26 44 41 42 36 28 22 19
38 45 48 53 42 32 32 27 18 11 9 11 13 17 23 25 24 15 14 18 21 24 29 32 39 52 70 91 98 99 100 100 98 98 78 74 75 92 74 80 74 65 69 58 42
41 38 42 45 52 52 43 35 30 25 15 16 14 20 25 27 28 27 28 28 30 39 46 46 51 72 79 100 100 100 100 100 100 96 100 100 100 100 96 84 83 56 47 43 59
38 42 40 38 43 49 54 54 44 38 38 34 34 33 29 36 36 40 44 40 38 43 58 72 66 95 100 100 100 100 100 99 100 98 100 100 100 100 100 97 99 100 100 95 92

GFSSW_250_rhum_141.txt.gz
RH
22 19 25 27 64 98 97 100 100 100 100 79 56 42 43 47 70 85 84 67 54 44 43 43 29 22 23 24 36 35 34 39 41 47 66 90 52 41 38 41 38 35 30 33 35
18 21 20 24 36 66 94 100 100 100 100 100 86 84 75 72 80 98 99 86 68 54 55 46 50 35 24 24 25 31 33 30 36 37 45 74 85 55 42 38 40 38 31 33 32
9 15 20 21 25 34 66 97 100 100 100 100 100 100 100 100 100 100 100 100 93 77 57 68 58 61 38 33 24 26 29 41 35 33 38 47 66 89 47 42 38 35 37 34 33
3 8 16 21 24 27 33 52 100 100 100 100 100 100 100 100 100 100 100 98 93 79 71 68 86 66 64 46 33 25 25 25 35 41 32 36 46 56 70 47 42 39 36 35 35
2 2 5 14 21 26 28 37 83 100 100 100 100 100 100 100 100 100 100 100 100 100 100 93 96 88 73 69 48 30 27 25 24 29 39 32 32 37 52 56 45 41 40 35 35
3 2 2 3 13 23 28 36 48 100 100 100 100 100 100 100 100 100 100 100 100 100 88 77 76 91 86 76 62 49 37 25 24 22 28 33 31 30 36 40 39 42 44 42 33
4 3 3 3 3 9 26 35 38 59 100 100 100 100 100 100 100 100 100 100 100 100 100 84 84 93 82 74 75 69 53 39 21 20 20 23 29 26 29 38 35 29 36 42 37
3 4 4 2 3 4 11 27 37 36 74 100 100 100 100 100 100 100 100 100 100 100 100 98 83 78 76 76 79 77 67 39 27 18 18 18 22 24 25 28 33 28 25 30 37
5 3 4 4 3 4 5 8 15 31 43 68 100 100 100 100 100 100 100 100 100 100 87 91 88 81 79 84 79 83 60 49 36 24 17 17 18 21 21 23 27 28 26 23 28
6 4 3 4 4 4 4 6 12 21 35 45 69 100 100 100 99 92 85 82 79 77 74 72 80 88 85 79 71 73 67 49 35 29 20 19 18 17 18 21 21 23 22 21 21
10 5 3 3 4 4 4 5 8 14 20 34 35 52 99 100 100 100 100 95 92 100 100 93 91 91 65 60 60 62 58 47 39 25 22 17 17 16 13 18 16 18 17 17 18
6 9 4 3 2 4 5 6 5 7 13 16 21 27 53 88 94 96 92 97 94 80 49 57 61 54 61 65 49 43 47 40 35 25 17 16 14 10 11 10 13 12 13 13 13
3 8 5 3 2 3 5 6 6 6 6 8 12 20 25 40 47 48 49 36 32 38 47 44 46 45 46 44 42 39 38 31 21 17 15 13 12 8 7 6 7 9 9 9 7
4 5 8 5 3 2 4 7 6 7 7 7 8 10 14 16 16 16 19 23 27 26 32 34 35 39 37 32 28 26 23 22 20 14 11 8 7 7 6 5 6 6 7 8 6
4 4 7 6 4 3 2 4 7 7 8 8 8 11 14 13 15 17 19 20 23 26 26 36 35 22 24 23 21 17 16 15 12 9 7 6 4 6 4 5 4 5 5 4 6
5 5 4 9 6 4 3 3 4 6 8 10 11 13 16 16 16 14 16 15 16 20 24 26 23 20 17 16 16 15 9 8 6 6 6 5 5 5 5 5 5 4 4 4 3
12 6 4 4 9 7 5 4 3 4 5 7 9 10 10 12 12 11 12 13 15 17 16 14 14 14 13 11 8 7 6 6 6 6 5 5 6 6 5 5 4 4 3 3 2
20 10 6 4 8 13 9 6 5 4 4 4 5 7 9 9 10 12 14 14 16 16 16 13 12 8 6 7 6 7 7 6 6 7 9 8 7 7 6 6 5 4 3 3 3
27 22 9 6 4 7 12 13 8 7 6 5 4 4 5 6 7 8 8 8 8 8 8 7 8 8 10 10 10 9 10 12 13 12 9 10 9 7 6 5 4 4 3 3 3
31 30 23 9 8 4 7 11 18 15 10 10 9 8 9 9 9 9 9 10 11 12 15 17 20 17 14 15 17 17 23 22 20 19 18 14 14 10 7 5 5 4 3 3 2
28 33 30 26 12 10 6 8 18 20 22 21 15 13 13 14 15 18 22 29 35 37 32 25 23 27 28 36 42 33 37 33 27 24 22 21 19 17 13 9 7 6 5 4 3
27 28 30 28 25 17 12 11 7 11 19 26 26 30 29 27 27 25 29 38 42 47 48 49 51 54 58 48 38 31 32 39 35 36 49 59 40 37 31 27 20 14 8 6 5
22 27 30 31 27 31 28 18 14 15 10 9 14 21 29 35 35 37 45 52 55 52 46 43 46 40 31 30 41 45 58 57 64 77 81 92 85 76 66 52 40 46 29 17 9
28 26 29 33 37 32 33 32 32 23 22 20 19 16 16 22 27 29 36 30 28 26 26 28 28 42 59 77 78 91 91 88 88 96 100 100 100 94 96 91 75 69 59 48 31
25 24 26 33 38 45 40 38 40 39 31 26 24 22 27 29 22 21 30 33 41 42 48 69 87 97 98 98 96 100 100 100 100 100 100 100 100 100 100 88 77 99 93 77 70
27 29 27 31 35 39 48 50 41 45 44 36 29 26 28 37 46 62 70 71 75 81 87 89 95 91 100 100 100 100 100 100 100 100 100 98 96 100 100 100 93 96 100 100 72
25 28 33 28 33 35 42 44 50 50 45 49 43 38 40 38 44 46 61 76 75 81 90 98 100 100 100 100 100 100 90 100 100 100 97 100 99 96 96 97 100 100 93 100 100

GFSSW_250_rhum_144.txt.gz
RH
11 14 18 18 20 47 99 100 100 100 100 100 99 80 85 62 47 44 71 73 68 59 53 47 37 29 25 26 26 26 29 31 32 31 41 57 72 74 74 53 46 38 33 44 31
6 12 16 17 20 21 55 100 100 100 100 100 100 100 80 88 59 48 49 55 77 80 62 37 30 37 43 29 23 23 24 24 29 32 32 40 43 58 73 66 52 37 33 37 39
5 8 12 15 17 20 26 65 100 100 100 100 100 100 100 95 78 68 64 52 57 78 95 76 68 38 36 39 33 24 23 24 24 27 25 35 35 40 41 58 55 43 35 36 35
4 7 10 15 16 18 22 39 87 100 100 100 97 100 100 100 91 77 79 72 67 67 81 100 100 93 58 43 44 43 29 25 26 24 25 30 31 34 36 41 47 51 36 35 36
4 4 5 10 16 19 22 24 54 100 100 100 99 92 100 100 100 87 77 88 97 100 100 100 100 96 88 87 62 40 50 41 27 24 24 28 30 26 29 30 35 42 47 40 34
3 4 4 4 6 14 19 24 38 60 100 100 100 100 94 100 100 100 100 100 100 100 100 100 100 99 83 61 67 73 57 49 40 25 21 22 22 26 25 24 24 34 41 38 44
4 4 4 3 3 4 14 21 25 33 49 97 100 100 100 100 100 100 100 100 100 100 100 100 100 100 100 90 92 78 54 47 45 42 31 20 19 20 24 22 22 19 32 37 40
5 4 4 3 4 4 5 19 22 28 34 38 92 100 100 100 100 100 100 100 97 100 100 100 100 97 99 75 72 52 56 56 59 49 47 40 27 19 20 20 20 18 20 28 35
5 4 3 4 3 4 4 11 23 27 30 34 43 94 100 94 100 100 97 100 100 100 99 91 92 96 100 100 84 68 69 67 67 65 52 50 42 28 16 17 19 21 19 21 24
6 4 3 3 4 4 4 7 21 27 28 33 37 48 85 76 100 100 100 100 100 100 100 99 100 100 99 100 97 88 73 66 53 54 53 50 44 41 21 15 15 17 20 20 19
7 4 3 3 4 4 5 5 13 25 30 29 34 34 45 69 85 100 100 100 100 100 100 100 98 94 87 85 86 78 64 54 53 52 52 47 38 39 26 14 14 14 14 16 16
7 4 3 2 2 4 5 5 5 19 27 30 31 33 32 40 50 94 100 100 94 99 100 98 87 87 90 79 70 67 69 60 58 48 40 36 30 25 24 19 14 12 12 12 12
6 4 3 2 2 4 5 5 6 5 10 18 25 31 36 39 45 69 98 100 100 94 84 82 80 79 77 69 71 72 69 59 44 34 29 29 26 23 19 17 14 11 10 10 9
4 7 4 3 3 4 5 6 6 6 7 8 16 27 34 37 41 46 74 92 91 87 82 78 80 76 73 68 69 76 72 41 32 23 20 17 14 20 12 14 10 9 8 7 7
4 6 6 4 3 3 4 6 6 7 9 10 10 15 12 13 18 36 36 42 47 60 73 83 82 88 92 89 79 42 35 24 18 17 17 16 9 15 11 7 6 6 6 6 6
6 4 7 6 5 5 4 5 6 7 7 10 11 11 13 14 15 15 20 24 24 24 31 39 53 66 45 30 30 26 18 15 14 12 12 10 9 11 8 7 5 5 4 4 4
15 6 6 12 7 6 6 4 5 6 7 7 13 16 15 18 14 15 16 17 17 18 18 18 20 23 25 21 18 14 12 13 14 14 13 13 11 6 6 6 5 5 4 4 3
27 18 7 5 12 10 8 6 5 4 6 8 10 10 11 12 12 13 12 11 12 12 12 12 13 12 13 13 12 14 14 13 9 7 6 7 7 8 8 8 8 7 6 5 4
29 29 22 10 7 8 14 14 10 8 6 5 5 6 7 9 10 12 14 14 15 15 14 14 14 15 13 11 8 7 6 6 7 9 12 15 16 12 14 12 10 8 7 6 5
19 28 32 26 13 10 9 11 16 16 12 12 11 10 8 7 6 6 7 8 9 9 8 8 7 7 7 8 8 10 16 20 23 30 28 25 28 18 14 10 10 8 6 6 5
19 18 27 31 27 17 10 12 10 18 27 30 24 21 17 13 14 13 14 14 13 14 15 15 16 17 18 22 26 30 31 32 37 44 49 28 29 45 47 39 35 24 16 9 6
19 20 19 26 32 28 25 14 13 15 11 20 36 47 46 42 47 45 45 43 37 38 36 38 42 42 38 31 33 38 49 56 71 55 51 71 94 100 99 81 69 48 34 19 10
23 20 21 23 31 34 33 32 16 16 21 18 14 18 23 28 31 32 32 36 41 44 47 44 38 41 36 40 54 66 86 81 80 100 100 100 100 100 100 100 100 73 64 50 27
27 23 20 22 28 34 39 39 35 21 16 17 27 29 29 29 25 25 27 30 31 34 36 38 40 59 64 78 89 92 91 100 100 100 100 100 100 99 98 100 100 100 98 96 70
34 26 24 21 25 33 38 43 44 38 31 29 30 40 50 61 60 52 42 46 50 56 69 84 99 100 99 100 98 100 100 100 100 100 100 100 100 100 100 100 100 100 100 100 100
56 36 29 25 23 26 33 41 50 52 44 38 39 44 41 59 73 71 69 72 81 90 94 98 99 92 97 100 100 100 100 100 100 100 100 100 100 100 100 100 100 100 100 100 99
57 60 38 30 26 26 28 34 40 40 49 55 45 42 45 47 58 76 92 100 100 95 95 98 100 100 100 99 98 100 95 98 93 90 100 100 99 100 100 100 100 100 100 97 97